KD8OUK Weather Reports


time (UTC)temp
F
wind
direction
speed
knots
gust
knots
rain 1hr
in
rain 24hr
in
rain mn
in
humidity
%
barometer
mb
20260508231021 55 270 0.9 3.5 0.00 0.04 0.04 96 1010.4
20260508230531 55 90 0.0 0.9 0.00 0.04 0.04 96 1010.4
20260508230023 55 90 0.9 2.6 0.00 0.04 0.04 96 1010.5
20260508225515 55 90 0.9 2.6 0.00 0.04 0.04 96 1010.5
20260508225025 55 239 0.9 2.6 0.00 0.04 0.04 96 1010.6
20260508224518 55 258 0.0 1.7 0.00 0.04 0.04 96 1010.7
20260508224029 55 264 1.7 3.5 0.00 0.04 0.04 95 1010.7
20260508223534 56 293 0.9 3.5 0.00 0.04 0.04 93 1010.6
20260508223025 56 158 0.0 1.7 0.00 0.04 0.04 93 1010.6
20260508222517 56 176 1.7 3.5 0.00 0.04 0.04 92 1010.6
20260508222027 57 43 0.9 4.3 0.00 0.04 0.04 91 1010.7
20260508221520 57 185 1.7 3.5 0.00 0.04 0.04 91 1010.7
20260508221030 57 316 1.7 3.5 0.00 0.04 0.04 90 1010.7
20260508220522 57 264 2.6 4.3 0.00 0.04 0.04 88 1010.7
20260508220032 57 288 4.3 8.7 0.00 0.04 0.04 86 1010.5
20260508215524 58 316 3.5 7.0 0.00 0.04 0.04 81 1010.5
20260508215017 59 296 2.6 3.5 0.00 0.04 0.04 78 1010.4
20260508214527 59 282 2.6 4.3 0.00 0.04 0.04 77 1010.4
20260508214019 60 253 4.3 7.0 0.00 0.04 0.04 71 1010.4
20260508213523 62 280 6.1 7.8 0.00 0.04 0.04 60 1010.2
20260508213021 62 264 9.6 13.0 0.00 0.04 0.04 60 1010.2
20260508212520 61 260 8.7 15.6 0.00 0.04 0.04 60 1010.2
20260508212018 61 265 7.8 13.0 0.00 0.04 0.04 61 1010.2
20260508211515 62 270 7.0 11.3 0.00 0.04 0.04 61 1010.1
20260508211026 62 271 8.7 17.4 0.00 0.04 0.04 59 1010.0
20260508210518 63 245 9.6 13.9 0.00 0.04 0.04 58 1010.0
20260508210028 63 244 7.8 11.3 0.00 0.04 0.04 58 1009.9
20260508205520 63 260 7.0 11.3 0.00 0.04 0.04 57 1009.9
20260508205031 64 253 9.6 14.8 0.00 0.04 0.04 56 1009.9
20260508204523 65 261 7.0 12.2 0.00 0.04 0.04 55 1009.9
20260508204033 65 257 7.8 13.0 0.00 0.04 0.04 53 1009.9
20260508203525 65 252 9.6 15.6 0.00 0.04 0.04 53 1010.0
20260508203017 66 251 9.6 12.2 0.00 0.04 0.04 53 1010.0
20260508202527 66 262 7.0 11.3 0.00 0.04 0.04 54 1010.2
20260508202019 66 242 6.1 8.7 0.00 0.04 0.04 54 1010.3
20260508201530 66 251 7.8 13.0 0.00 0.04 0.04 53 1010.3
20260508201022 66 237 7.0 10.4 0.00 0.04 0.04 53 1010.5
20260508200532 65 262 7.0 10.4 0.00 0.04 0.04 53 1010.5
20260508200024 65 263 5.2 7.0 0.00 0.04 0.04 54 1010.6
20260508195516 64 278 7.0 7.8 0.00 0.04 0.04 53 1010.6
20260508195027 64 247 7.8 7.8 0.00 0.04 0.04 53 1010.7
20260508194518 64 263 7.0 9.6 0.00 0.04 0.04 55 1010.8
20260508194029 64 268 7.0 10.4 0.00 0.04 0.04 55 1010.8
20260508193521 64 264 7.8 9.6 0.00 0.04 0.04 55 1011.0
20260508193031 64 275 7.0 11.3 0.00 0.04 0.04 55 1011.0
20260508192523 64 257 7.8 12.2 0.00 0.04 0.04 55 1011.1
20260508192015 64 260 6.1 8.7 0.00 0.04 0.04 55 1011.1
20260508191526 64 242 6.1 9.6 0.00 0.04 0.04 54 1011.1
20260508191016 64 263 8.7 11.3 0.00 0.04 0.04 55 1011.4
20260508190526 65 283 7.8 11.3 0.00 0.04 0.04 56 1011.4
20260508190018 65 251 7.0 8.7 0.00 0.04 0.04 55 1011.4
20260508185522 65 275 7.0 13.9 0.00 0.04 0.04 56 1011.4
20260508185021 65 263 6.1 8.7 0.00 0.04 0.04 56 1011.4
20260508184519 64 259 7.0 9.6 0.00 0.04 0.04 57 1011.3
20260508184018 64 279 6.1 7.8 0.00 0.04 0.04 57 1011.3
20260508183516 64 247 6.1 8.7 0.00 0.04 0.04 57 1011.5
20260508183026 64 253 7.0 13.0 0.00 0.04 0.04 57 1011.5
20260508182518 65 280 8.7 13.0 0.00 0.04 0.04 55 1011.6
20260508182029 65 269 8.7 13.0 0.00 0.04 0.04 55 1011.6
20260508181521 65 275 7.0 10.4 0.00 0.04 0.04 56 1011.7
20260508181030 66 261 8.7 10.4 0.00 0.04 0.04 54 1011.7
20260508180524 66 244 6.1 8.7 0.00 0.04 0.04 53 1011.7
20260508180033 0 293 7.8 7.8 0.00 0.04 0.04 1012.1
20260508175525 67 264 7.0 13.0 0.00 0.04 0.04 53 1012.1
20260508175017 67 275 6.1 8.7 0.00 0.04 0.04 53 1012.1
20260508174527 68 262 8.7 13.9 0.00 0.04 0.04 53 1012.3
20260508174019 67 276 6.1 7.8 0.00 0.04 0.04 54 1012.3
20260508173530 67 264 7.0 10.4 0.00 0.04 0.04 54 1012.6
20260508173022 66 252 5.2 8.7 0.00 0.04 0.04 55 1012.6
20260508172532 66 248 7.0 9.6 0.00 0.04 0.04 55 1012.8
20260508172024 66 279 7.0 11.3 0.00 0.04 0.04 55 1013.0
20260508171516 65 293 5.2 7.8 0.00 0.04 0.04 56 1013.1
20260508171026 65 263 6.1 9.6 0.00 0.04 0.04 55 1013.4
20260508170518 65 276 7.8 10.4 0.00 0.04 0.04 56 1013.4
20260508170030 65 269 6.1 9.6 0.00 0.04 0.04 55 1013.7
20260508165521 64 271 6.1 10.4 0.00 0.04 0.04 55 1013.8
20260508165031 64 287 6.1 9.6 0.00 0.04 0.04 56 1013.9
20260508164523 64 251 6.1 7.8 0.00 0.04 0.04 56 1014.0
20260508164033 64 259 7.8 13.0 0.00 0.04 0.04 56 1014.0
20260508163525 65 284 7.8 10.4 0.00 0.04 0.04 56 1014.0
20260508163017 64 268 6.1 9.6 0.00 0.04 0.04 57 1014.0
20260508162527 62 281 6.1 9.6 0.00 0.04 0.04 60 1014.0
20260508162020 61 284 7.0 12.2 0.00 0.04 0.04 60 1013.9
20260508161524 60 271 6.1 7.8 0.00 0.04 0.04 61 1014.0
20260508161023 60 276 6.1 8.7 0.00 0.04 0.04 61 1014.0
20260508160520 60 279 6.1 9.6 0.00 0.04 0.04 61 1014.0
20260508160018 59 252 6.1 8.7 0.00 0.04 0.04 62 1014.0
20260508155517 58 262 7.8 12.2 0.00 0.04 0.04 62 1014.0
20260508155016 58 261 7.0 9.6 0.00 0.04 0.04 62 1014.1
20260508154531 58 262 7.8 13.0 0.00 0.04 0.04 62 1014.1
20260508154023 58 274 7.8 11.3 0.00 0.04 0.04 61 1014.1
20260508153516 58 258 7.0 9.6 0.00 0.04 0.04 64 1014.1
20260508153026 57 259 5.2 7.0 0.00 0.04 0.04 65 1014.1
20260508152518 57 280 6.1 7.8 0.00 0.04 0.04 66 1014.2
20260508152028 56 260 6.1 7.8 0.00 0.04 0.04 68 1014.2
20260508151520 56 277 5.2 7.8 0.00 0.04 0.04 68 1014.2
20260508151030 55 254 4.3 6.1 0.00 0.04 0.04 69 1014.1
20260508150522 55 275 6.1 10.4 0.00 0.04 0.04 68 1014.1
20260508150033 54 255 4.3 6.1 0.00 0.04 0.04 69 1014.2
20260508145525 54 263 6.1 8.7 0.00 0.04 0.04 69 1014.2
20260508145017 53 248 4.3 6.1 0.00 0.04 0.04 71 1014.2
20260508144527 53 265 4.3 6.1 0.00 0.04 0.04 71 1014.3
20260508144020 52 256 3.5 5.2 0.00 0.04 0.04 72 1014.3
20260508143529 52 270 4.3 4.3 0.00 0.04 0.04 73 1014.1
20260508143021 51 228 3.5 4.3 0.00 0.04 0.04 72 1014.1
20260508142532 51 245 3.5 6.1 0.00 0.04 0.04 73 1014.2
20260508142023 51 252 3.5 5.2 0.00 0.04 0.04 73 1014.3
20260508141516 51 248 4.3 5.2 0.00 0.04 0.04 72 1014.3
20260508141027 51 264 5.2 6.1 0.00 0.04 0.04 72 1014.3
20260508140518 51 248 5.2 6.1 0.00 0.04 0.04 72 1014.3
20260508140029 51 259 3.5 6.1 0.00 0.04 0.04 72 1014.2
20260508135521 51 252 3.5 6.1 0.00 0.04 0.04 72 1014.2
20260508135031 51 271 5.2 8.7 0.00 0.04 0.04 72 1014.3
20260508134523 51 268 3.5 7.0 0.00 0.04 0.04 71 1014.5
20260508134027 51 265 4.3 6.1 0.00 0.04 0.04 71 1014.5
20260508133525 51 267 3.5 5.2 0.00 0.04 0.04 71 1014.3
20260508133017 51 273 5.2 7.8 0.00 0.04 0.04 70 1014.3
20260508132522 51 256 4.3 7.0 0.00 0.04 0.04 71 1014.3
20260508132020 51 258 4.3 7.8 0.00 0.04 0.04 71 1014.3
20260508131518 51 254 4.3 6.1 0.00 0.04 0.04 71 1014.3
20260508131016 51 280 5.2 7.0 0.00 0.04 0.04 70 1014.3
20260508130532 51 258 3.5 5.2 0.00 0.04 0.04 71 1014.3
20260508130025 51 259 4.3 7.0 0.00 0.04 0.04 71 1014.3
20260508125518 51 258 3.5 5.2 0.00 0.04 0.04 71 1014.3
20260508125027 51 272 4.3 7.0 0.00 0.04 0.04 71 1014.2
20260508124519 51 269 4.3 7.8 0.00 0.04 0.04 72 1014.1
20260508124029 51 264 5.2 7.8 0.00 0.04 0.04 71 1014.1
20260508123522 51 258 5.2 7.8 0.00 0.04 0.04 72 1014.1
20260508123032 51 246 5.2 10.4 0.00 0.04 0.04 72 1014.1
20260508122524 50 268 5.2 7.0 0.00 0.04 0.04 73 1014.1
20260508122016 50 260 4.3 7.0 0.00 0.04 0.04 74 1014.1
20260508121526 50 254 3.5 4.3 0.00 0.04 0.04 74 1014.1
20260508121018 50 234 5.2 7.8 0.00 0.04 0.04 74 1014.0
20260508120529 49 257 3.5 7.0 0.00 0.04 0.04 76 1014.0
20260508120021 49 250 3.5 5.2 0.00 0.04 0.04 76 1014.0
20260508115531 49 238 2.6 4.3 0.00 0.04 0.04 77 1013.9
20260508115023 48 235 2.6 4.3 0.00 0.04 0.04 76 1013.9
20260508114533 48 232 3.5 4.3 0.00 0.04 0.04 77 1013.8
20260508114025 48 241 3.5 5.2 0.00 0.04 0.04 77 1013.8
20260508113517 48 229 2.6 4.3 0.00 0.04 0.04 77 1013.7
20260508113028 48 266 2.6 4.3 0.00 0.04 0.04 77 1013.7
20260508112520 47 245 3.5 5.2 0.00 0.04 0.04 77 1013.7
20260508112030 47 241 1.7 4.3 0.00 0.04 0.04 78 1013.7
20260508111523 47 257 2.6 3.5 0.00 0.04 0.04 78 1013.7
20260508111016 46 253 2.6 3.5 0.00 0.04 0.04 78 1013.6
20260508110525 46 257 2.6 5.2 0.00 0.04 0.04 78 1013.6
20260508110017 46 235 2.6 3.5 0.00 0.04 0.04 78 1013.5
20260508105528 46 251 2.6 4.3 0.00 0.04 0.04 79 1013.5
20260508105020 46 256 1.7 4.3 0.00 0.04 0.04 78 1013.5
20260508104524 46 266 2.6 4.3 0.00 0.04 0.04 78 1013.6
20260508104022 46 243 3.5 5.2 0.00 0.04 0.04 79 1013.6
20260508103522 46 244 2.6 3.5 0.00 0.04 0.04 80 1013.5
20260508103018 46 250 3.5 4.3 0.00 0.04 0.04 79 1013.5
20260508102519 45 254 3.5 4.3 0.00 0.04 0.04 80 1013.6
20260508102015 45 235 2.6 5.2 0.00 0.04 0.04 80 1013.7
20260508101525 45 247 2.6 4.3 0.00 0.04 0.04 81 1013.7
20260508101017 45 273 3.5 5.2 0.00 0.04 0.04 81 1013.6
20260508100527 45 261 2.6 5.2 0.00 0.04 0.04 81 1013.6
20260508100020 45 240 2.6 3.5 0.00 0.04 0.04 81 1013.5
20260508095530 45 258 3.5 5.2 0.00 0.04 0.04 81 1013.5
20260508095022 44 255 2.6 4.3 0.00 0.04 0.04 82 1013.6
20260508094533 44 254 1.7 2.6 0.00 0.04 0.04 82 1013.6
20260508094025 44 245 2.6 4.3 0.00 0.04 0.04 83 1013.6
20260508093517 44 241 2.6 4.3 0.00 0.04 0.04 83 1013.5
20260508093027 44 244 2.6 4.3 0.00 0.04 0.04 84 1013.5
20260508092519 44 238 2.6 5.2 0.00 0.04 0.04 84 1013.5
20260508092032 43 236 1.7 3.5 0.00 0.04 0.04 84 1013.5
20260508091522 43 236 1.7 3.5 0.00 0.04 0.04 85 1013.5
20260508091032 43 230 2.6 4.3 0.00 0.04 0.04 86 1013.5
20260508090524 43 253 1.7 3.5 0.00 0.04 0.04 87 1013.5
20260508090017 43 243 1.7 3.5 0.00 0.04 0.04 88 1013.6
20260508085527 43 239 1.7 3.5 0.00 0.04 0.04 89 1013.6
20260508085019 42 234 1.7 4.3 0.00 0.04 0.04 91 1013.6
20260508084529 42 244 2.6 4.3 0.00 0.04 0.04 92 1013.6
20260508084022 42 251 2.6 4.3 0.00 0.04 0.04 94 1013.6
20260508083531 42 245 1.7 3.5 0.00 0.04 0.04 95 1013.6
20260508083024 42 226 1.7 3.5 0.00 0.04 0.04 95 1013.6
20260508082516 41 222 1.7 5.2 0.00 0.04 0.04 95 1013.6
20260508082026 41 248 0.0 1.7 0.00 0.04 0.04 97 1013.6
20260508081518 41 239 0.9 2.6 0.00 0.04 0.04 97 1013.6
20260508081028 41 223 0.9 2.6 0.00 0.04 0.04 97 1013.6
20260508080515 41 233 0.9 2.6 0.00 0.04 0.04 97 1013.6
20260508080025 41 0.0 0.0 0.00 0.04 0.04 98 1013.8
20260508075517 41 218 0.9 1.7 0.00 0.04 0.04 99 1013.8
20260508075022 41 225 0.0 1.7 0.00 0.04 0.04 99 1013.8
20260508074520 41 0.0 0.0 0.00 0.04 0.04 99 1013.8
20260508074018 41 0.0 0.0 0.00 0.04 0.04 99 1013.8
20260508073516 41 109 0.9 2.6 0.00 0.04 0.04 99 1013.8
20260508073032 41 102 1.7 1.7 0.00 0.04 0.04 99 1013.8
20260508072524 41 96 1.7 2.6 0.00 0.04 0.04 99 1013.9
20260508072017 42 99 1.7 2.6 0.00 0.04 0.04 99 1013.9
20260508071527 42 104 1.7 1.7 0.00 0.04 0.04 99 1013.9
20260508071019 42 102 1.7 1.7 0.00 0.04 0.04 99 1013.9
20260508070529 42 0.0 0.0 0.00 0.04 0.04 99 1013.9
20260508070021 42 0.0 0.0 0.00 0.04 0.04 98 1014.0
20260508065532 42 0.0 0.0 0.00 0.04 0.04 98 1014.0
20260508065024 42 135 0.0 0.9 0.00 0.04 0.04 96 1014.1
20260508064516 42 0.0 0.0 0.00 0.04 0.04 95 1014.1
20260508064026 43 0.0 0.0 0.00 0.04 0.04 95 1014.1
20260508063518 43 0.0 0.9 0.00 0.04 0.04 95 1014.0
20260508063028 43 0.0 0.0 0.00 0.04 0.04 94 1014.0
20260508062521 43 0.0 0.0 0.01 0.04 0.04 94 1014.1
20260508062031 44 215 0.0 1.7 0.02 0.04 0.04 94 1014.1
20260508061523 44 0.0 0.9 0.04 0.04 0.04 95 1014.1
20260508061033 44 180 0.0 1.7 0.04 0.04 0.04 96 1014.1
20260508060525 44 211 0.0 1.7 0.04 0.04 0.04 96 1014.1
20260508060017 44 197 0.9 1.7 0.04 0.04 0.04 96 1014.1
20260508055527 45 176 0.9 2.6 0.04 0.04 0.04 96 1014.1
20260508055019 45 101 0.0 1.7 0.04 0.04 0.04 95 1014.3
20260508054530 46 0.0 0.0 0.04 0.04 0.04 94 1014.5
20260508054022 46 133 1.7 1.7 0.04 0.04 0.04 94 1014.5
20260508053532 46 110 0.9 1.7 0.04 0.04 0.04 92 1015.0
20260508053024 46 192 1.7 4.3 0.04 0.04 0.04 91 1015.0
20260508052517 46 136 3.5 7.0 0.03 0.03 0.03 89 1015.1
20260508052027 47 249 4.3 8.7 0.02 0.02 0.02 89 1015.2
20260508051519 47 231 1.7 3.5 0.00 0.00 0.00 87 1015.2
20260508051023 47 75 2.6 4.3 0.00 0.00 0.00 88 1015.0
20260508050521 47 68 0.9 1.7 0.00 0.00 0.00 88 1015.0
20260508050020 47 56 1.7 2.6 0.00 0.00 0.00 86 1014.5
20260508045518 46 27 1.7 2.6 0.00 0.00 0.00 84 1014.3
20260508045017 46 322 0.9 1.7 0.00 0.00 0.00 82 1014.1
20260508044515 46 0.0 0.0 0.00 0.00 0.00 83 1014.0
20260508044032 46 158 0.0 0.9 0.00 0.00 0.00 84 1014.0
20260508043524 46 0.0 0.0 0.00 0.00 0.00 85 1014.0
20260508043016 46 0.0 0.0 0.00 0.00 0.00 86 1014.0
20260508042528 46 0.0 0.0 0.00 0.00 0.00 88 1014.2
20260508042019 46 0.0 0.0 0.00 0.00 0.00 89 1014.2
20260508041529 46 0.0 0.0 0.00 0.00 0.00 89 1014.3
20260508041022 46 0.0 0.0 0.00 0.00 0.00 90 1014.5
20260508040527 46 0.0 0.0 0.00 0.00 0.00 90 1014.5
20260508040039 46 0.0 0.0 0.00 0.00 0.00 89 1014.5
20260508035523 46 0.0 0.0 0.00 0.00 0.00 89 1014.5
20260508035015 46 0.0 0.0 0.00 0.00 0.00 87 1014.5
20260508034526 46 0.0 0.0 0.00 0.00 0.00 87 1014.5
20260508034018 46 158 0.0 0.9 0.00 0.00 0.00 85 1014.5
20260508033528 46 0.0 0.0 0.00 0.00 0.00 85 1014.5
20260508033020 46 0.0 0.0 0.00 0.00 0.00 87 1014.5
20260508032532 46 158 0.0 0.9 0.00 0.00 0.00 86 1014.5
20260508032023 46 141 0.9 1.7 0.00 0.00 0.00 85 1014.5
20260508031533 46 0.0 0.0 0.00 0.00 0.00 82 1014.5
20260508031025 47 0.0 0.0 0.00 0.00 0.00 81 1014.5
20260508030517 47 0.0 0.0 0.00 0.00 0.00 80 1014.5
20260508030027 47 0.0 0.0 0.00 0.00 0.00 81 1014.4
20260508025520 47 0.0 0.0 0.00 0.00 0.00 81 1014.3
20260508025029 47 0.0 0.0 0.00 0.00 0.00 81 1014.3
20260508024523 47 0.0 0.0 0.00 0.00 0.00 81 1014.3
20260508024033 47 146 0.0 0.9 0.00 0.00 0.00 79 1014.3
20260508023524 48 134 0.9 2.6 0.00 0.00 0.00 79 1014.5
20260508023016 48 112 0.9 1.7 0.00 0.00 0.00 77 1014.5
20260508022527 48 98 1.7 2.6 0.00 0.00 0.00 74 1014.5
20260508022027 48 90 0.0 1.7 0.00 0.00 0.00 74 1014.5
20260508021523 48 0.0 0.0 0.00 0.00 0.00 76 1014.5
20260508021016 48 0.0 0.0 0.00 0.00 0.00 71 1014.3
20260508020519 48 0.0 0.0 0.00 0.00 0.00 71 1014.3
20260508020019 49 0.0 0.0 0.00 0.00 0.00 70 1014.2
20260508015516 49 0.0 0.0 0.00 0.00 0.00 68 1014.2
20260508015020 49 58 0.0 1.7 0.00 0.00 0.00 68 1014.2
20260508014532 50 30 0.9 1.7 0.00 0.00 0.00 68 1014.2
20260508014018 50 209 0.0 1.7 0.00 0.00 0.00 67 1014.2
20260508013527 50 255 0.9 1.7 0.00 0.00 0.00 65 1014.3
20260508013019 51 260 1.7 2.6 0.00 0.00 0.00 64 1014.3
20260508012530 51 264 1.7 4.3 0.00 0.00 0.00 63 1014.2
20260508012022 51 265 2.6 4.3 0.00 0.00 0.00 61 1014.1
20260508011532 51 238 3.5 5.2 0.00 0.00 0.00 61 1014.1
20260508011025 52 246 3.5 5.2 0.00 0.00 0.00 61 1014.2
20260508010516 52 250 1.7 3.5 0.00 0.00 0.00 60 1014.2
20260508010027 52 235 2.6 4.3 0.00 0.00 0.00 60 1014.2
20260508005519 52 242 2.6 4.3 0.00 0.00 0.00 59 1014.2
20260508005029 52 275 2.6 4.3 0.00 0.00 0.00 59 1014.2
20260508004522 52 284 3.5 6.1 0.00 0.00 0.00 58 1014.2
20260508004033 53 260 2.6 5.2 0.00 0.98 0.00 58 1014.2
20260508003524 53 283 2.6 5.2 0.00 0.98 0.00 60 1014.1
20260508003017 53 250 0.9 1.7 0.00 0.98 0.00 59 1014.1
20260508002526 53 259 2.6 4.3 0.00 0.98 0.00 59 1014.1
20260508002019 53 247 1.7 2.6 0.00 0.98 0.00 59 1014.1
20260508001529 53 228 1.7 3.5 0.00 0.98 0.00 58 1014.1
20260508001021 54 225 0.9 1.7 0.00 0.98 0.00 58 1013.9
20260508000531 54 270 1.7 3.5 0.00 0.98 0.00 55 1013.9
20260508000024 54 330 1.7 2.6 0.00 0.98 0.00 55 1013.9
20260507235516 54 277 0.9 2.6 0.00 0.98 0.00 55 1013.9
20260507235026 54 253 2.6 3.5 0.00 0.98 0.00 52 1013.9
20260507234518 55 264 2.6 5.2 0.00 0.98 0.00 52 1013.8
20260507234028 55 237 2.6 3.5 0.00 0.98 0.00 51 1013.8
20260507233520 55 256 2.6 4.3 0.00 0.98 0.00 50 1013.6
20260507233024 56 264 1.7 2.6 0.00 0.98 0.00 48 1013.6
20260507232523 57 250 3.5 6.1 0.00 0.98 0.00 46 1013.7
20260507232021 56 275 3.5 6.1 0.00 0.98 0.00 48 1013.7
20260507231519 57 286 2.6 4.3 0.00 0.98 0.00 45 1013.7